Fulton, NY

9:36 AM EST on November 20, 2017 (GMT -0500)
Oswego County

Weather History for KFZY - January, 2013

Change the Weather History Date:

Tuesday, January 15, 2013

  Actual Average (KSYR) Record (KSYR)
Temperature  
Mean Temperature 30 °F -  
Max Temperature 33 °F 29 °F 68 °F (1995)
Min Temperature 28 °F 13 °F -24 °F (1957)
Degree Days  
Heating Degree Days 34    
Moisture  
Dew Point 23 °F    
Average Humidity 74    
Maximum Humidity 82    
Minimum Humidity 56    
Precipitation  
Precipitation 0.00 in - - ()
Sea Level Pressure  
Sea Level Pressure 30.33 in    
Wind  
Wind Speed 5 mph (WSW)    
Max Wind Speed 8 mph    
Max Gust Speed -    
Visibility 9 miles    
Events Snow    
Averages and records for this station are not official NWS values.
T = Trace of Precipitation, MM = Missing Value Source: NWS Daily Summary

Daily Weather History Graph

Daily Weather History Graph

Search for Another Location

Airport or City:

Trip Planner

Search our weather history database for the weather conditions in past years. The results will help you decide how hot, cold, wet, or windy it might be!

Date:

Astronomy

Jan. 15, 2013 Rise Set
Actual Time 7:34 AM EST 4:55 PM EST
Civil Twilight 7:03 AM EST 5:27 PM EST
Nautical Twilight 6:28 AM EST 6:02 PM EST
Astronomical Twilight 5:53 AM EST 6:36 PM EST
Moon 9:30 AM EST (1/15) 9:52 PM EST (1/15)
Length of Visible Light 10h 23m
Length of Day
9h 20m
Waxing Crescent, 19% of the Moon is Illuminated
Jan 15
Waxing Crescent
Jan 18
First Quarter
Jan 26
Full
Feb 3
Last Quarter
Feb 10
New

Hourly Weather History & Observations

Time (EST) Temp. Windchill Dew Point Humidity Pressure Visibility Wind Dir Wind Speed Gust Speed Precip Events Conditions
12:54 AM 30.9 °F 25.2 °F 19.9 °F 64% 30.33 in 10.0 mi SW 5.8 mph - N/A   Overcast
1:54 AM 30.9 °F 25.2 °F 19.9 °F 64% 30.33 in 10.0 mi SW 5.8 mph - N/A   Overcast
2:18 AM 30.2 °F 24.3 °F 21.2 °F 69% 30.32 in 10.0 mi SW 5.8 mph - N/A   Overcast
2:44 AM 30.2 °F 24.3 °F 21.2 °F 69% 30.32 in 10.0 mi WSW 5.8 mph - N/A   Overcast
2:54 AM 30.9 °F 26.2 °F 21.0 °F 67% 30.35 in 10.0 mi WNW 4.6 mph - N/A   Overcast
3:54 AM 30.9 °F 24.3 °F 21.9 °F 69% 30.33 in 10.0 mi West 6.9 mph - N/A   Overcast
4:54 AM 30.0 °F 25.2 °F 21.9 °F 72% 30.32 in 10.0 mi WSW 4.6 mph - N/A   Overcast
5:54 AM 30.0 °F 25.2 °F 24.1 °F 79% 30.33 in 10.0 mi West 4.6 mph - N/A   Overcast
6:54 AM 30.0 °F - 24.1 °F 79% 30.34 in 10.0 mi Calm Calm - N/A   Overcast
7:21 AM 30.2 °F 26.7 °F 24.8 °F 80% 30.33 in 10.0 mi WSW 3.5 mph - N/A   Overcast
7:49 AM 30.2 °F 25.4 °F 24.8 °F 80% 30.35 in 10.0 mi WSW 4.6 mph - N/A   Overcast
7:54 AM 30.0 °F 25.2 °F 24.1 °F 79% 30.37 in 10.0 mi WSW 4.6 mph - N/A   Overcast
8:01 AM 30.2 °F 26.7 °F 24.8 °F 80% 30.35 in 10.0 mi WSW 3.5 mph - N/A   Overcast
8:23 AM 30.2 °F - 24.8 °F 80% 30.36 in 10.0 mi Calm Calm - N/A   Overcast
8:54 AM 30.0 °F 25.2 °F 24.1 °F 79% 30.38 in 7.0 mi WSW 4.6 mph - N/A   Overcast
9:54 AM 30.9 °F 24.3 °F 25.0 °F 79% 30.39 in 10.0 mi WSW 6.9 mph - N/A   Overcast
10:54 AM 30.0 °F 22.4 °F 24.1 °F 79% 30.38 in 7.0 mi WSW 8.1 mph - N/A   Overcast
11:28 AM 30.2 °F 22.6 °F 24.8 °F 80% 30.35 in 2.5 mi WSW 8.1 mph - 0.00 in Snow Light Snow
11:39 AM 30.2 °F 23.4 °F 24.8 °F 80% 30.35 in 3.0 mi WSW 6.9 mph - 0.00 in Snow Light Snow
11:46 AM 30.2 °F 24.3 °F 24.8 °F 80% 30.35 in 4.0 mi WSW 5.8 mph - 0.00 in Snow Light Snow
11:54 AM 30.0 °F 23.2 °F 25.0 °F 82% 30.37 in 4.0 mi WSW 6.9 mph - 0.00 in Snow Light Snow
12:31 PM 30.2 °F 24.3 °F 24.8 °F 80% 30.34 in 10.0 mi SW 5.8 mph - 0.00 in   Overcast
12:54 PM 32.0 °F 25.6 °F 25.0 °F 75% 30.34 in 10.0 mi SW 6.9 mph - 0.00 in   Overcast
1:54 PM 32.0 °F 25.6 °F 23.0 °F 69% 30.32 in 10.0 mi WNW 6.9 mph - N/A   Overcast
2:54 PM 33.1 °F 26.9 °F 21.0 °F 61% 30.33 in 10.0 mi West 6.9 mph - N/A   Mostly Cloudy
3:54 PM 33.1 °F 26.1 °F 19.0 °F 56% 30.32 in 10.0 mi WNW 8.1 mph - N/A   Mostly Cloudy
4:54 PM 30.9 °F 25.2 °F 19.0 °F 61% 30.34 in 10.0 mi West 5.8 mph - N/A   Mostly Cloudy
5:54 PM 30.0 °F - 19.0 °F 64% 30.33 in 10.0 mi Calm Calm - N/A   Clear
6:54 PM 28.9 °F - 19.0 °F 67% 30.32 in 10.0 mi Calm Calm - N/A   Clear
7:54 PM 28.9 °F - 21.0 °F 72% 30.30 in 10.0 mi Calm Calm - N/A   Clear
8:54 PM 28.0 °F - 21.9 °F 78% 30.28 in 10.0 mi Calm Calm - N/A   Clear
9:54 PM 28.9 °F - 21.9 °F 75% 30.27 in 10.0 mi Calm Calm - N/A   Clear
10:54 PM 28.9 °F - 23.0 °F 78% 30.25 in 10.0 mi Calm Calm - N/A   Mostly Cloudy
11:54 PM 28.9 °F - 21.9 °F 75% 30.22 in 10.0 mi Calm Calm - N/A   Overcast